VOZ291 YSCB-YSSY

Flight info

Callsign VOZ291
Flight time 0h 46m
Altitude 17000
Route CULIN2/35 CULIN Y59 TESAT
Aircraft B738/M-SDE2E3FGHIRWXY/LB1

Departure

Time 2026-05-04 09:58
Airport Canberra Airport (YSCB)

Arrival

Time 2026-05-04 10:44
Airport Sydney Kingsford Smith International Airport (YSSY)
Time Latitude Longitude Altitude Speed Heading
2026-05-04 09:40 -35.30796 149.19148 1872 ft 0 kts 270°
2026-05-04 09:49 -35.30796 149.19149 1872 ft 0 kts 270°
2026-05-04 09:49 -35.30798 149.19166 1873 ft 2 kts 283°
2026-05-04 09:49 -35.30800 149.19184 1873 ft 2 kts 277°
2026-05-04 09:51 -35.30791 149.19240 1874 ft 0 kts 179°
2026-05-04 09:53 -35.30818 149.19240 1874 ft 7 kts 180°
2026-05-04 09:54 -35.30901 149.19240 1874 ft 15 kts 181°
2026-05-04 09:54 -35.31037 149.19238 1874 ft 23 kts 181°
2026-05-04 09:54 -35.31177 149.19237 1874 ft 18 kts 180°
2026-05-04 09:54 -35.31300 149.19237 1874 ft 16 kts 180°
2026-05-04 09:55 -35.31405 149.19248 1873 ft 13 kts 159°
2026-05-04 09:55 -35.31461 149.19314 1873 ft 0 kts 113°
2026-05-04 09:56 -35.31461 149.19315 1873 ft 0 kts 113°
2026-05-04 09:57 -35.31469 149.19358 1874 ft 10 kts 96°
2026-05-04 09:57 -35.31406 149.19442 1878 ft 19 kts
2026-05-04 09:57 -35.30938 149.19440 1878 ft 107 kts 359°
2026-05-04 09:57 -35.29806 149.19442 1931 ft 177 kts 359°
2026-05-04 09:58 -35.28339 149.19474 2328 ft 210 kts
2026-05-04 09:58 -35.26751 149.19611 3483 ft 201 kts
2026-05-04 09:58 -35.25515 149.20001 4987 ft 162 kts 32°
2026-05-04 10:00 -35.15186 149.25491 9451 ft 242 kts 11°
2026-05-04 10:00 -35.13456 149.26054 9738 ft 268 kts 12°
2026-05-04 10:02 -34.98530 149.30973 14117 ft 338 kts 12°
2026-05-04 10:04 -34.83082 149.35528 17078 ft 344 kts 354°
2026-05-04 10:04 -34.80646 149.35428 17080 ft 345 kts 352°
2026-05-04 10:04 -34.78847 149.35328 17075 ft 346 kts 352°
2026-05-04 10:04 -34.76416 149.35027 17065 ft 341 kts 341°
2026-05-04 10:05 -34.74272 149.33940 17082 ft 330 kts 324°
2026-05-04 10:05 -34.72214 149.32381 17083 ft 338 kts 322°
2026-05-04 10:05 -34.70179 149.30782 17073 ft 352 kts 322°
2026-05-04 10:05 -34.68093 149.29138 17071 ft 355 kts 322°
2026-05-04 10:06 -34.66027 149.27509 17072 ft 353 kts 322°
2026-05-04 10:06 -34.63968 149.25886 17073 ft 352 kts 322°
2026-05-04 10:06 -34.62540 149.24760 17074 ft 352 kts 322°
2026-05-04 10:08 -34.49505 149.14450 17074 ft 356 kts 322°
2026-05-04 10:08 -34.47160 149.12593 17074 ft 356 kts 322°
2026-05-04 10:08 -34.44841 149.10755 17073 ft 356 kts 322°
2026-05-04 10:08 -34.42484 149.08888 17074 ft 356 kts 322°
2026-05-04 10:09 -34.40341 149.07190 17074 ft 356 kts 322°
2026-05-04 10:09 -34.38272 149.05551 17074 ft 356 kts 322°
2026-05-04 10:09 -34.36200 149.03907 17073 ft 356 kts 322°
2026-05-04 10:09 -34.34131 149.02262 17073 ft 357 kts 323°
2026-05-04 10:10 -34.32060 149.01154 17063 ft 366 kts 342°
2026-05-04 10:10 -34.29182 149.01088 17090 ft 378 kts
2026-05-04 10:10 -34.26441 149.01984 17071 ft 386 kts 19°
2026-05-04 10:10 -34.24117 149.03840 17064 ft 393 kts 44°
2026-05-04 10:11 -34.22581 149.06628 17083 ft 396 kts 66°
2026-05-04 10:11 -34.21753 149.09791 17075 ft 397 kts 81°
2026-05-04 10:11 -34.21481 149.13188 17076 ft 396 kts 89°
2026-05-04 10:11 -34.21384 149.16568 17073 ft 395 kts 90°
2026-05-04 10:12 -34.21291 149.19898 17071 ft 395 kts 89°
2026-05-04 10:12 -34.21190 149.23216 17074 ft 395 kts 89°
2026-05-04 10:12 -34.21083 149.26535 17073 ft 395 kts 89°
2026-05-04 10:12 -34.20971 149.29875 17074 ft 395 kts 89°
2026-05-04 10:13 -34.20856 149.33201 17073 ft 395 kts 89°
2026-05-04 10:13 -34.20739 149.36528 17074 ft 395 kts 89°
2026-05-04 10:13 -34.20620 149.39845 17074 ft 395 kts 89°
2026-05-04 10:13 -34.20500 149.43171 17074 ft 395 kts 89°
2026-05-04 10:14 -34.20379 149.46494 17074 ft 395 kts 89°
2026-05-04 10:14 -34.20255 149.49847 17074 ft 395 kts 89°
2026-05-04 10:16 -34.19375 149.73117 17052 ft 397 kts 88°
2026-05-04 10:16 -34.19244 149.76495 17048 ft 397 kts 88°
2026-05-04 10:16 -34.19113 149.79843 17047 ft 397 kts 88°
2026-05-04 10:16 -34.18980 149.83184 17047 ft 397 kts 88°
2026-05-04 10:17 -34.18847 149.86524 17047 ft 397 kts 88°
2026-05-04 10:17 -34.18713 149.89870 17043 ft 396 kts 88°
2026-05-04 10:19 -34.17209 150.13091 13502 ft 370 kts 78°
2026-05-04 10:19 -34.16588 150.16227 13088 ft 368 kts 77°
2026-05-04 10:19 -34.15941 150.19362 12853 ft 383 kts 76°
2026-05-04 10:19 -34.15252 150.22628 12592 ft 394 kts 76°
2026-05-04 10:20 -34.14554 150.25890 12329 ft 392 kts 76°
2026-05-04 10:20 -34.13840 150.29205 12059 ft 388 kts 76°
2026-05-04 10:20 -34.13131 150.32486 11796 ft 386 kts 76°
2026-05-04 10:20 -34.12444 150.35657 11543 ft 385 kts 76°
2026-05-04 10:21 -34.11749 150.38859 11287 ft 384 kts 75°
2026-05-04 10:21 -34.11047 150.42080 10992 ft 379 kts 75°
2026-05-04 10:21 -34.10395 150.45074 10451 ft 360 kts 75°
2026-05-04 10:21 -34.09775 150.47916 10014 ft 341 kts 75°
2026-05-04 10:22 -34.08609 150.53262 9154 ft 314 kts 74°
2026-05-04 10:22 -34.08056 150.55843 8765 ft 322 kts 74°
2026-05-04 10:22 -34.07492 150.58463 8324 ft 321 kts 74°
2026-05-04 10:23 -34.06939 150.61032 7883 ft 315 kts 73°
2026-05-04 10:23 -34.06386 150.63598 7460 ft 310 kts 73°
2026-05-04 10:25 -34.03017 150.79120 5990 ft 271 kts 71°
2026-05-04 10:25 -34.02509 150.81300 5985 ft 264 kts 71°
2026-05-04 10:25 -34.02009 150.83430 5994 ft 263 kts 71°
2026-05-04 10:25 -34.01506 150.85563 5994 ft 265 kts 71°
2026-05-04 10:26 -34.01003 150.87704 5993 ft 265 kts 71°
2026-05-04 10:26 -34.00500 150.89847 5993 ft 265 kts 71°
2026-05-04 10:26 -33.99997 150.91988 5993 ft 265 kts 71°
2026-05-04 10:26 -33.99491 150.94141 5993 ft 266 kts 71°
2026-05-04 10:27 -33.98995 150.96247 5993 ft 266 kts 71°
2026-05-04 10:27 -33.98486 150.98480 5993 ft 267 kts 73°
2026-05-04 10:27 -33.98033 151.00659 5993 ft 267 kts 73°
2026-05-04 10:27 -33.97585 151.02840 5992 ft 266 kts 73°
2026-05-04 10:28 -33.97147 151.04972 5984 ft 255 kts 73°
2026-05-04 10:28 -33.96729 151.06996 5989 ft 242 kts 73°
2026-05-04 10:28 -33.96332 151.08916 5991 ft 230 kts 73°
2026-05-04 10:28 -33.95943 151.10779 5995 ft 228 kts 72°
2026-05-04 10:29 -33.95550 151.12659 5996 ft 230 kts 72°
2026-05-04 10:29 -33.95211 151.14565 5987 ft 233 kts 84°
2026-05-04 10:29 -33.95474 151.16485 5998 ft 235 kts 116°
2026-05-04 10:29 -33.96451 151.18135 6023 ft 238 kts 132°
2026-05-04 10:30 -33.97671 151.19792 5979 ft 239 kts 133°
2026-05-04 10:30 -33.98911 151.21469 5991 ft 236 kts 133°
2026-05-04 10:30 -34.00189 151.23198 5995 ft 238 kts 133°
2026-05-04 10:30 -34.01470 151.24929 5992 ft 238 kts 133°
2026-05-04 10:31 -34.02755 151.26666 5993 ft 238 kts 133°
2026-05-04 10:31 -34.04032 151.28391 5992 ft 238 kts 133°
2026-05-04 10:32 -34.13049 151.35480 5254 ft 231 kts 168°
2026-05-04 10:33 -34.14811 151.36041 4981 ft 231 kts 168°
2026-05-04 10:33 -34.16373 151.36530 4741 ft 230 kts 168°
2026-05-04 10:33 -34.18086 151.37060 4478 ft 230 kts 168°
2026-05-04 10:33 -34.19760 151.37569 4223 ft 229 kts 168°
2026-05-04 10:34 -34.21308 151.38033 3988 ft 229 kts 168°
2026-05-04 10:34 -34.23018 151.38538 3729 ft 228 kts 168°
2026-05-04 10:34 -34.24766 151.39046 3466 ft 227 kts 168°
2026-05-04 10:34 -34.26552 151.39557 3197 ft 226 kts 168°
2026-05-04 10:35 -34.28326 151.39711 3108 ft 216 kts 197°
2026-05-04 10:35 -34.29785 151.38662 3197 ft 215 kts 236°
2026-05-04 10:35 -34.30362 151.36823 3147 ft 205 kts 275°
2026-05-04 10:35 -34.29897 151.35149 3172 ft 198 kts 308°
2026-05-04 10:36 -34.28932 151.33744 3161 ft 201 kts 313°
2026-05-04 10:36 -34.27923 151.32357 3152 ft 198 kts 313°
2026-05-04 10:36 -34.26914 151.30970 3162 ft 198 kts 313°
2026-05-04 10:36 -34.25919 151.29601 3161 ft 199 kts 313°
2026-05-04 10:37 -34.24766 151.28397 3154 ft 197 kts 330°
2026-05-04 10:37 -34.23556 151.27607 3169 ft 197 kts 333°
2026-05-04 10:37 -34.22262 151.26800 3159 ft 198 kts 333°
2026-05-04 10:37 -34.20915 151.25962 3161 ft 197 kts 333°
2026-05-04 10:39 -34.12941 151.23366 3197 ft 169 kts 349°
2026-05-04 10:39 -34.11761 151.23118 3164 ft 165 kts 349°
2026-05-04 10:39 -34.10701 151.22895 3152 ft 164 kts 349°
2026-05-04 10:40 -34.09569 151.22656 3157 ft 164 kts 349°
2026-05-04 10:40 -34.08419 151.22388 3153 ft 162 kts 347°
2026-05-04 10:40 -34.07367 151.22112 3114 ft 138 kts 346°
2026-05-04 10:40 -34.06444 151.21867 3175 ft 133 kts 346°
2026-05-04 10:41 -34.05523 151.21622 3154 ft 136 kts 346°
2026-05-04 10:41 -34.04632 151.21386 2855 ft 129 kts 346°
2026-05-04 10:41 -34.03745 151.21152 2267 ft 132 kts 347°
2026-05-04 10:41 -34.02858 151.20918 1725 ft 131 kts 348°
2026-05-04 10:42 -34.01976 151.20686 1181 ft 131 kts 348°
2026-05-04 10:42 -34.01083 151.20450 627 ft 130 kts 349°
2026-05-04 10:42 -34.00223 151.20223 455 ft 126 kts 349°
2026-05-04 10:42 -33.99350 151.19992 547 ft 131 kts 349°
2026-05-04 10:43 -33.98418 151.19745 303 ft 132 kts 349°
2026-05-04 10:44 -33.95263 151.18817 14 ft 1 kts 320°
2026-05-04 10:45 -33.95260 151.18815 14 ft 0 kts 320°
2026-05-04 10:46 -33.95252 151.18807 14 ft 3 kts 320°
2026-05-04 10:46 -33.95215 151.18768 15 ft 13 kts 319°
2026-05-04 10:46 -33.95117 151.18661 16 ft 22 kts 314°
2026-05-04 10:47 -33.95093 151.18583 17 ft 0 kts 267°
2026-05-04 10:47 -33.95095 151.18565 17 ft 5 kts 261°
2026-05-04 10:47 -33.95119 151.18423 19 ft 24 kts 258°
2026-05-04 10:47 -33.95160 151.18194 19 ft 34 kts 257°
2026-05-04 10:49 -33.94533 151.17881 26 ft 0 kts 349°
2026-05-04 10:49 -33.94506 151.17879 26 ft 8 kts 12°
2026-05-04 10:50 -33.94427 151.17909 25 ft 4 kts
2026-05-04 10:51 -33.94155 151.17845 15 ft 0 kts 348°
2026-05-04 10:52 -33.94154 151.17845 15 ft 1 kts 348°
2026-05-04 10:52 -33.94078 151.17825 13 ft 22 kts 348°
2026-05-04 10:54 -33.93918 151.17785 11 ft 0 kts 348°